Radioactive Concentration measured by Seawater Radiation Monitor near Fukushima Daiichi Nuclear Power Station
Date,Time,Cs137(Bq/L),Cs134(Bq/L),Total β(Bq/L)
2017/06/03,00:00,0.85,0.081,ND
2017/06/03,00:10,0.89,0.082,ND
2017/06/03,00:20,0.89,0.11,ND
2017/06/03,00:30,0.93,0.10,9.0
2017/06/03,00:40,0.97,0.096,9.3
2017/06/03,00:50,0.97,0.10,ND
2017/06/03,01:00,1.0,0.071,8.8
2017/06/03,01:10,1.0,0.079,ND
2017/06/03,01:20,1.0,0.083,11
2017/06/03,01:30,1.1,0.082,9.5
2017/06/03,01:40,1.0,0.093,ND
2017/06/03,01:50,1.0,0.086,ND
2017/06/03,02:00,1.0,0.089,ND
2017/06/03,02:10,1.0,0.085,ND
2017/06/03,02:20,1.0,0.077,ND
2017/06/03,02:30,0.98,0.086,ND
2017/06/03,02:40,0.97,0.083,ND
2017/06/03,02:50,0.96,0.092,ND
2017/06/03,03:00,0.96,0.092,ND
2017/06/03,03:10,0.99,0.075,ND
2017/06/03,03:20,0.97,0.086,ND
2017/06/03,03:30,0.96,0.11,ND
2017/06/03,03:40,0.96,0.11,ND
2017/06/03,03:50,0.97,0.11,ND
2017/06/03,04:00,1.0,0.071,ND
2017/06/03,04:10,0.99,0.066,ND
2017/06/03,04:20,0.98,0.067,ND
2017/06/03,04:30,0.96,0.067,ND
2017/06/03,04:40,0.90,0.11,ND
2017/06/03,04:50,0.91,0.096,ND
2017/06/03,05:00,0.89,0.091,ND
2017/06/03,05:10,0.91,0.075,8.8
2017/06/03,05:20,0.87,0.090,ND
2017/06/03,05:30,0.91,0.066,ND
2017/06/03,05:40,0.87,0.082,ND
2017/06/03,05:50,0.84,0.088,ND
2017/06/03,06:00,0.84,0.092,ND
2017/06/03,06:10,0.82,0.086,ND
2017/06/03,06:20,0.87,0.060,ND
2017/06/03,06:30,0.85,0.065,ND
2017/06/03,06:40,0.83,0.069,ND
2017/06/03,06:50,0.81,0.064,ND
2017/06/03,07:00,0.82,0.053,ND
2017/06/03,07:10,0.82,0.050,ND
2017/06/03,07:20,0.77,0.048,ND
2017/06/03,07:30,0.73,0.048,ND
2017/06/03,07:40,0.72,0.033,ND
2017/06/03,07:50,0.75,0.034,ND
2017/06/03,08:00,0.66,0.046,ND
2017/06/03,08:10,0.66,0.040,ND
2017/06/03,08:20,0.61,0.060,ND
2017/06/03,08:30,0.66,0.036,9.0
2017/06/03,08:40,0.62,0.048,9.3
2017/06/03,08:50,0.61,0.049,9.3
2017/06/03,09:00,0.61,0.031,12
2017/06/03,09:10,0.59,0.043,8.9
2017/06/03,09:20,0.58,0.045,11
2017/06/03,09:30,0.54,0.067,ND
2017/06/03,09:40,0.57,0.038,ND
2017/06/03,09:50,0.56,0.033,ND
2017/06/03,10:00,0.54,0.042,ND
2017/06/03,10:10,0.55,0.048,ND
2017/06/03,10:20,0.55,0.043,ND
2017/06/03,10:30,0.52,0.048,ND
2017/06/03,10:40,0.56,0.037,ND
2017/06/03,10:50,0.58,0.045,ND
2017/06/03,11:00,0.56,0.052,ND
2017/06/03,11:10,0.54,0.040,ND
2017/06/03,11:20,0.53,0.050,ND
2017/06/03,11:30,0.56,0.045,ND
2017/06/03,11:40,0.57,0.049,ND
2017/06/03,11:50,0.55,0.048,ND
2017/06/03,12:00,0.58,0.040,9.5
2017/06/03,12:10,0.61,0.039,9.7
2017/06/03,12:20,0.62,0.032,ND
2017/06/03,12:30,0.62,0.030,ND
2017/06/03,12:40,0.61,0.026,9.9
2017/06/03,12:50,0.70,ND,ND
2017/06/03,13:00,0.73,ND,9.6
2017/06/03,13:10,0.68,0.041,8.8
2017/06/03,13:20,0.74,0.042,11
2017/06/03,13:30,0.79,0.046,12
2017/06/03,13:40,0.83,0.047,12
2017/06/03,13:50,0.83,0.055,12
2017/06/03,14:00,0.85,0.061,11
2017/06/03,14:10,0.85,0.062,9.9
2017/06/03,14:20,0.87,0.045,ND
2017/06/03,14:30,0.85,0.046,ND
2017/06/03,14:40,0.84,0.050,ND
2017/06/03,14:50,0.86,0.045,ND
2017/06/03,15:00,0.87,0.037,ND
2017/06/03,15:10,0.87,0.037,ND
2017/06/03,15:20,0.84,0.051,ND
2017/06/03,15:30,0.84,0.050,ND
2017/06/03,15:40,0.81,0.048,13
2017/06/03,15:50,0.78,0.048,10
2017/06/03,16:00,0.75,0.052,9.2
2017/06/03,16:10,0.74,0.057,11
2017/06/03,16:20,0.75,0.049,10
2017/06/03,16:30,0.76,0.046,12
2017/06/03,16:40,0.79,0.038,ND
2017/06/03,16:50,0.78,0.041,8.9
2017/06/03,17:00,0.77,0.040,10
2017/06/03,17:10,0.73,0.052,8.9
2017/06/03,17:20,0.77,0.038,9.9
2017/06/03,17:30,0.74,0.042,ND
2017/06/03,17:40,0.71,0.054,ND
2017/06/03,17:50,0.72,0.039,ND
2017/06/03,18:00,0.73,0.045,ND
2017/06/03,18:10,0.73,0.039,ND
2017/06/03,18:20,0.71,0.047,ND
2017/06/03,18:30,0.70,0.050,ND
2017/06/03,18:40,0.69,0.052,ND
2017/06/03,18:50,0.71,0.056,ND
2017/06/03,19:00,0.73,0.056,ND
2017/06/03,19:10,0.73,0.052,ND
2017/06/03,19:20,0.74,0.052,ND
2017/06/03,19:30,0.76,0.056,ND
2017/06/03,19:40,0.74,0.058,ND
2017/06/03,19:50,0.73,0.058,12
2017/06/03,20:00,0.72,0.058,10
2017/06/03,20:10,0.71,0.063,11
2017/06/03,20:20,0.71,0.057,11
2017/06/03,20:30,0.68,0.054,ND
2017/06/03,20:40,0.69,0.055,ND
2017/06/03,20:50,0.71,0.050,ND
2017/06/03,21:00,0.69,0.051,ND
2017/06/03,21:10,0.71,0.054,ND
2017/06/03,21:20,0.72,0.060,ND
2017/06/03,21:30,0.76,0.053,ND
2017/06/03,21:40,0.80,0.051,ND
2017/06/03,21:50,0.80,0.051,9.5
2017/06/03,22:00,0.81,0.054,ND
2017/06/03,22:10,0.80,0.052,ND
2017/06/03,22:20,0.86,0.058,ND
2017/06/03,22:30,0.81,0.064,ND
2017/06/03,22:40,0.81,0.064,ND
2017/06/03,22:50,0.78,0.068,ND
2017/06/03,23:00,0.77,0.066,ND
2017/06/03,23:10,0.78,0.073,ND
2017/06/03,23:20,0.76,0.070,ND
2017/06/03,23:30,0.75,0.061,ND
2017/06/03,23:40,0.75,0.049,ND
2017/06/03,23:50,0.77,0.039,ND
